sat.trackr.live / text

‹ back to catalog

STARLINK-11352 [DTC]

NORAD 62880 · 2025-024B

PAYLOAD ACTIVE UNKNOWN

§ Identity

Operator
Country
US
Launch date
2025-02-04
Launch site
AFETR
Launch vehicle
Mass (kg)
RCS (m²)

Purposes: comms

External: N2YO · Heavens-Above · Gunter

§ Orbital elements

Epoch: 2026-05-25T03:29:04.259616Z

Period
91.66 min
Inclination
43.0009°
Eccentricity
0.0002509
Mean motion
15.71085325 rev/d
Perigee alt
354.1 km
Apogee alt
357.5 km
Semi-major
6,733.9 km
B*
2.0274e-3
RAAN
80.3784°
Arg perigee
281.5012°
Mean anomaly
78.5574°
Rev number
7,549

§ Raw data

STARLINK-11352 [DTC]1 62880U 25024B   26145.14518819  .00271153  00000+0  20274-2 0  99972 62880  43.0009  80.3784 0002509 281.5012  78.5574 15.71085325 75495

JSON: /api/v1/satellites/62880 · /tle

For live sub-satellite position, see the globe view (requires WebGL).

§ Visibility from observer

Set your observer location to see the next 7 days of passes ≥ 10°. The values pass through the URL so the page stays shareable.

No JS? Fill the form by hand. The geolocation button needs JavaScript.